Ogden, UT

2:36 AM MDT on March 27, 2017 (GMT -0600)
Ogden-Hinckley

Weather History for KOGD - June, 2014

Change the Weather History Date:

Monday, June 9, 2014

  Actual Average Record
Temperature  
Mean Temperature 68 °F -  
Max Temperature 84 °F 77 °F 95 °F (1952)
Min Temperature 54 °F 51 °F 38 °F (1950)
Cooling Degree Days 3    
Growing Degree Days 18 (Base 50)    
Moisture  
Dew Point 30 °F    
Average Humidity 26    
Maximum Humidity 42    
Minimum Humidity 13    
Precipitation  
Precipitation 0.00 in - - ()
Sea Level Pressure  
Sea Level Pressure 29.88 in    
Wind  
Wind Speed 7 mph (South)    
Max Wind Speed 10 mph    
Max Gust Speed -    
Visibility 10 miles    
Events      
Averages and records for this station are not official NWS values.
T = Trace of Precipitation, MM = Missing Value Source: NWS Daily Summary

Daily Weather History Graph

Daily Weather History Graph

Search for Another Location

Airport or City:

Trip Planner

Search our weather history database for the weather conditions in past years. The results will help you decide how hot, cold, wet, or windy it might be!

Date:

Astronomy

Jun. 09, 2014 Rise Set
Actual Time 5:55 AM MDT 8:59 PM MDT
Civil Twilight 5:21 AM MDT 9:33 PM MDT
Nautical Twilight 4:38 AM MDT 10:16 PM MDT
Astronomical Twilight 3:48 AM MDT 11:06 PM MDT
Moon 5:23 PM MDT (6/9) 3:26 AM MDT (6/9)
Length of Visible Light 16h 11m
Length of Day
15h 04m
Waxing Gibbous, 85% of the Moon is Illuminated
Jun 9
Waxing Gibbous
Jun 12
Full
Jun 19
Last Quarter
Jun 27
New
Jul 5
First Quarter

Hourly Weather History & Observations

Time (MDT) Temp. Dew Point Humidity Pressure Visibility Wind Dir Wind Speed Gust Speed Precip Events Conditions
12:53 AM 59.0 °F 30.0 °F 33% 29.97 in 10.0 mi South 6.9 mph - N/A   Clear
1:53 AM 57.9 °F 30.9 °F 36% 29.96 in 10.0 mi SSE 6.9 mph - N/A   Clear
2:53 AM 57.9 °F 30.0 °F 35% 29.96 in 10.0 mi South 9.2 mph - N/A   Clear
3:53 AM 55.9 °F 30.9 °F 39% 29.96 in 10.0 mi South 5.8 mph - N/A   Clear
4:53 AM 55.0 °F 30.9 °F 40% 29.96 in 10.0 mi South 8.1 mph - N/A   Clear
5:53 AM 54.0 °F 30.9 °F 41% 29.98 in 10.0 mi South 8.1 mph - N/A   Clear
6:53 AM 55.0 °F 32.0 °F 42% 29.99 in 10.0 mi South 10.4 mph - N/A   Clear
7:53 AM 59.0 °F 33.1 °F 38% 29.98 in 10.0 mi South 5.8 mph - N/A   Clear
9:53 AM 69.1 °F 30.9 °F 24% 29.97 in 10.0 mi Variable 4.6 mph - N/A   Clear
10:53 AM 72.0 °F 32.0 °F 23% 29.96 in 10.0 mi SE 6.9 mph - N/A   Clear
11:53 AM 75.9 °F 28.9 °F 18% 29.95 in 10.0 mi SSE 9.2 mph - N/A   Clear
2:53 PM 81.0 °F 27.0 °F 14% 29.87 in 10.0 mi Variable 6.9 mph - N/A   Clear
3:53 PM 80.1 °F 25.0 °F 13% 29.86 in 10.0 mi West 4.6 mph - N/A   Clear
4:53 PM 82.0 °F 27.0 °F 13% 29.83 in 10.0 mi Variable 4.6 mph - N/A   Clear
5:53 PM 82.9 °F 27.0 °F 13% 29.80 in 10.0 mi Variable 4.6 mph - N/A   Clear
6:53 PM 82.0 °F 28.0 °F 14% 29.78 in 10.0 mi SSW 4.6 mph - N/A   Clear
7:53 PM 81.0 °F 26.1 °F 13% 29.76 in 10.0 mi Calm Calm - N/A   Clear
8:53 PM 78.1 °F 30.0 °F 17% 29.74 in 10.0 mi ESE 4.6 mph - N/A   Clear
9:53 PM 71.1 °F 34.0 °F 26% 29.75 in 10.0 mi SSE 9.2 mph - N/A   Clear
10:53 PM 68.0 °F 34.0 °F 28% 29.76 in 10.0 mi SSE 6.9 mph - N/A   Clear
11:53 PM 66.0 °F 34.0 °F 30% 29.74 in 10.0 mi South 8.1 mph - N/A   Clear